• In Uzbekistan
  • List of Countries
  • For 7 days
  • Water Temperature
  • Satellite Maps
  • Weather Map
  • Weather Widgets
  • user-avatar
    Login

    Hourly Weather Algiers

    Today, 25 February, Saturday

    Time Temperature Precipitation Wind Pressure Humidity
    00:00 +13°C° 0 mm 5 mps 748 mmHg 93%
    01:00 +13°C° 0.8 mm 5 mps 748 mmHg 93%
    02:00 +12°C° 0.8 mm 5 mps 748 mmHg 93%
    03:00 +11°C° 0.8 mm 6 mps 748 mmHg 94%
    04:00 +11°C° 0.9 mm 6 mps 749 mmHg 95%
    05:00 +12°C° 0.9 mm 5 mps 749 mmHg 96%
    06:00 +12°C° 0.9 mm 5 mps 749 mmHg 96%
    07:00 +10°C° 0.3 mm 5 mps 750 mmHg 96%
    08:00 +11°C° 0.3 mm 4 mps 750 mmHg 95%
    09:00 +11°C° 0.3 mm 4 mps 751 mmHg 94%
    10:00 +12°C° 0 mm 3 mps 751 mmHg 89%
    11:00 +12°C° 0 mm 3 mps 751 mmHg 84%
    12:00 +13°C° 0 mm 3 mps 751 mmHg 79%
    13:00 +13°C° 0 mm 3 mps 751 mmHg 77%
    14:00 +14°C° 0 mm 3 mps 751 mmHg 75%
    15:00 +14°C° 0 mm 3 mps 751 mmHg 73%
    16:00 +12°C° 0 mm 3 mps 751 mmHg 79%
    17:00 +11°C° 0 mm 3 mps 752 mmHg 85%
    18:00 +9°C° 0 mm 2 mps 752 mmHg 91%
    19:00 +9°C° 0 mm 2 mps 752 mmHg 92%
    20:00 +8°C° 0 mm 2 mps 753 mmHg 93%
    21:00 +9°C° 0 mm 1 mps 753 mmHg 93%
    22:00 +8°C° 0 mm 1 mps 753 mmHg 93%
    23:00 +8°C° 0 mm 1 mps 753 mmHg 93%

    Tomorrow, 26 February, Sunday

    Time Temperature Precipitation Wind Pressure Humidity
    00:00 +7°C° 0 mm 1 mps 753 mmHg 93%
    01:00 +7°C° 0 mm 1 mps 753 mmHg 93%
    02:00 +7°C° 0 mm 1 mps 753 mmHg 93%
    03:00 +7°C° 0 mm 1 mps 753 mmHg 92%
    04:00 +7°C° 0 mm 1 mps 753 mmHg 92%
    05:00 +6°C° 0 mm 1 mps 753 mmHg 92%
    06:00 +6°C° 0 mm 1 mps 753 mmHg 92%
    07:00 +9°C° 0 mm 1 mps 753 mmHg 85%
    08:00 +11°C° 0 mm 1 mps 754 mmHg 77%
    09:00 +13°C° 0 mm 1 mps 754 mmHg 70%
    10:00 +14°C° 0 mm 1 mps 754 mmHg 66%
    11:00 +15°C° 0 mm 1 mps 753 mmHg 62%
    12:00 +16°C° 0 mm 1 mps 753 mmHg 57%
    13:00 +16°C° 0 mm 1 mps 753 mmHg 59%
    14:00 +16°C° 0 mm 2 mps 752 mmHg 60%
    15:00 +16°C° 0 mm 2 mps 752 mmHg 61%
    16:00 +14°C° 0 mm 2 mps 752 mmHg 70%
    17:00 +12°C° 0 mm 2 mps 752 mmHg 80%
    18:00 +8°C° 0 mm 2 mps 752 mmHg 89%
    19:00 +8°C° 0 mm 2 mps 752 mmHg 89%
    20:00 +8°C° 0 mm 2 mps 752 mmHg 89%
    21:00 +8°C° 0 mm 2 mps 752 mmHg 89%
    22:00 +8°C° 0 mm 2 mps 752 mmHg 87%
    23:00 +8°C° 0 mm 2 mps 752 mmHg 85%

    Day after tomorrow, 27 February, Monday

    Time Temperature Precipitation Wind Pressure Humidity
    00:00 +8°C° 0 mm 2 mps 751 mmHg 83%
    01:00 +8°C° 0 mm 2 mps 751 mmHg 79%
    02:00 +8°C° 0 mm 2 mps 751 mmHg 75%
    03:00 +8°C° 0 mm 2 mps 750 mmHg 71%
    04:00 +8°C° 0 mm 2 mps 750 mmHg 69%
    05:00 +8°C° 0 mm 2 mps 750 mmHg 67%
    06:00 +8°C° 0 mm 2 mps 750 mmHg 65%
    07:00 +12°C° 0 mm 2 mps 750 mmHg 60%
    08:00 +14°C° 0 mm 2 mps 751 mmHg 55%
    09:00 +17°C° 0 mm 2 mps 751 mmHg 51%
    10:00 +18°C° 0 mm 2 mps 751 mmHg 49%
    11:00 +20°C° 0 mm 1 mps 750 mmHg 47%
    12:00 +22°C° 0 mm 1 mps 750 mmHg 45%
    13:00 +21°C° 0 mm 1 mps 750 mmHg 47%
    14:00 +20°C° 0 mm 2 mps 749 mmHg 50%
    15:00 +20°C° 0 mm 2 mps 749 mmHg 52%
    16:00 +17°C° 0 mm 2 mps 749 mmHg 63%
    17:00 +14°C° 0 mm 1 mps 749 mmHg 74%
    18:00 +12°C° 0 mm 1 mps 749 mmHg 85%
    19:00 +10°C° 0 mm 2 mps 749 mmHg 85%
    20:00 +10°C° 0 mm 2 mps 749 mmHg 85%
    21:00 +10°C° 0 mm 2 mps 750 mmHg 85%
    22:00 +10°C° 0 mm 3 mps 750 mmHg 84%
    23:00 +11°C° 0 mm 3 mps 750 mmHg 82%

    28 February, Tuesday

    Time Temperature Precipitation Wind Pressure Humidity
    00:00 +11°C° 0 mm 3 mps 750 mmHg 81%
    01:00 +10°C° 0 mm 3 mps 749 mmHg 80%
    02:00 +10°C° 0 mm 3 mps 749 mmHg 80%
    03:00 +10°C° 0 mm 3 mps 749 mmHg 79%
    04:00 +9°C° 0 mm 3 mps 749 mmHg 79%
    05:00 +9°C° 0 mm 3 mps 750 mmHg 79%
    06:00 +7°C° 0 mm 4 mps 750 mmHg 79%
    07:00 +11°C° 0 mm 4 mps 750 mmHg 72%
    08:00 +14°C° 0 mm 4 mps 751 mmHg 64%
    09:00 +17°C° 0 mm 4 mps 751 mmHg 56%
    10:00 +18°C° 0 mm 4 mps 751 mmHg 54%
    11:00 +19°C° 0 mm 4 mps 751 mmHg 53%
    12:00 +20°C° 0 mm 4 mps 751 mmHg 51%
    13:00 +20°C° 0 mm 5 mps 750 mmHg 52%
    14:00 +20°C° 0 mm 5 mps 750 mmHg 54%
    15:00 +20°C° 0 mm 5 mps 750 mmHg 56%
    16:00 +17°C° 0 mm 4 mps 750 mmHg 68%
    17:00 +13°C° 0 mm 4 mps 750 mmHg 80%
    18:00 +10°C° 0 mm 3 mps 750 mmHg 92%
    19:00 +10°C° 0 mm 3 mps 751 mmHg 92%
    20:00 +10°C° 0 mm 2 mps 751 mmHg 93%
    21:00 +9°C° 0 mm 2 mps 752 mmHg 93%
    22:00 +9°C° 0 mm 2 mps 752 mmHg 91%
    23:00 +9°C° 0 mm 2 mps 752 mmHg 90%

    1 March, Wednesday

    Time Temperature Precipitation Wind Pressure Humidity
    00:00 +9°C° 0 mm 2 mps 752 mmHg 88%
    01:00 +10°C° 0 mm 1 mps 752 mmHg 88%
    02:00 +9°C° 0 mm 1 mps 751 mmHg 87%
    03:00 +8°C° 0 mm 1 mps 751 mmHg 87%
    04:00 +8°C° 0 mm 1 mps 752 mmHg 87%
    05:00 +8°C° 0 mm 1 mps 752 mmHg 87%
    06:00 +8°C° 0 mm 1 mps 752 mmHg 87%
    07:00 +11°C° 0 mm 1 mps 752 mmHg 77%
    08:00 +14°C° 0 mm 1 mps 753 mmHg 67%
    09:00 +19°C° 0 mm 1 mps 753 mmHg 58%
    10:00 +20°C° 0 mm 1 mps 753 mmHg 52%
    11:00 +21°C° 0 mm 1 mps 753 mmHg 46%
    12:00 +22°C° 0 mm 1 mps 753 mmHg 40%
    13:00 +22°C° 0 mm 1 mps 752 mmHg 44%
    14:00 +21°C° 0 mm 2 mps 752 mmHg 48%
    15:00 +21°C° 0 mm 2 mps 752 mmHg 51%
    16:00 +18°C° 0 mm 2 mps 752 mmHg 62%
    17:00 +15°C° 0 mm 2 mps 752 mmHg 74%
    18:00 +12°C° 0 mm 2 mps 752 mmHg 85%
    19:00 +12°C° 0 mm 2 mps 752 mmHg 85%
    20:00 +10°C° 0 mm 2 mps 752 mmHg 84%
    21:00 +10°C° 0 mm 2 mps 753 mmHg 83%
    22:00 +10°C° 0 mm 2 mps 752 mmHg 80%
    23:00 +10°C° 0 mm 2 mps 752 mmHg 77%

    2 March, Thursday

    Time Temperature Precipitation Wind Pressure Humidity
    00:00 +10°C° 0 mm 2 mps 752 mmHg 74%
    01:00 +10°C° 0 mm 2 mps 752 mmHg 68%
    02:00 +10°C° 0 mm 2 mps 751 mmHg 62%
    03:00 +10°C° 0 mm 2 mps 751 mmHg 56%
    04:00 +10°C° 0 mm 2 mps 751 mmHg 52%
    05:00 +10°C° 0 mm 2 mps 751 mmHg 48%
    06:00 +10°C° 0 mm 2 mps 751 mmHg 44%
    07:00 +14°C° 0 mm 2 mps 751 mmHg 44%
    08:00 +17°C° 0 mm 2 mps 752 mmHg 44%
    09:00 +19°C° 0 mm 3 mps 752 mmHg 44%
    10:00 +21°C° 0 mm 2 mps 751 mmHg 41%
    11:00 +24°C° 0 mm 2 mps 751 mmHg 38%
    12:00 +25°C° 0 mm 2 mps 751 mmHg 34%
    13:00 +25°C° 0 mm 2 mps 750 mmHg 37%
    14:00 +25°C° 0 mm 2 mps 750 mmHg 41%
    15:00 +24°C° 0 mm 3 mps 749 mmHg 44%
    16:00 +20°C° 0 mm 2 mps 749 mmHg 56%
    17:00 +17°C° 0 mm 2 mps 749 mmHg 68%
    18:00 +13°C° 0 mm 1 mps 749 mmHg 80%
    19:00 +13°C° 0 mm 1 mps 749 mmHg 80%
    20:00 +13°C° 0 mm 1 mps 750 mmHg 79%
    21:00 +13°C° 0 mm 1 mps 750 mmHg 78%
    22:00 +12°C° 0 mm 1 mps 749 mmHg 77%
    23:00 +12°C° 0 mm 1 mps 749 mmHg 76%
    Show more